Pagrindinis puslapis
METAR-TAF:

METAR-TAF

Oro uostai :

Ipjalesas, Kolumbija

platuma: 00-49N, ilguma: 077-38W, Aukštis: 2961 m

Dabartinis oras

Ataskaita buvo paskelbta 14 valandos ir 42 minutes, ne 19:00 UTC
Vėjas 5 kt iš Rytų
Temperatūra 14°C
Drėgmė 77%
Slėgis 1029 hPa
Matomumas 10 km arba daugiau
Su prošvaistėmis ne aukštis 1800 ft

METAR: SKIP 201900Z 08005KT 9999 BKN018 14/10 A3039

Laikas: 04:42 (09:42 UTC)


TAF: trūkstamas

Orai ataskaitas ir orų prognozės (METAR, TAF).

turimą stotys yra geltonos ir raudonos taškus žemėlapyje.

Perkelti pele per norėdami pamatyti stoties vardą.

Tada spustelėkite, norėdami matyti oro stebėjimo ir prognozės.

Norėdami pakeisti žemėlapį: spustelėkite ant žalios mygtukų su juodo kryžiaus žemyn,; žalią mygtuką su brūkšneliu, jei norite nutolinti; arba žalių rodyklių gretimoms žemėlapius.


METAR-TAF: